Flag for Qatar Weather past 2 weeks in Al Khor, Qatar

Now
93 °F

Clear.


Feels Like: 107 °F
Forecast: 84 / 107 °F
Wind: 2 mph from North

Location: Doha International Airport

Current Time: Aug 2, 2014 at 1:35:59 AM

Latest Report: Aug 2, 2014 at 12:00 AM


Visibility: 6 mi

Pressure: 29.45 "Hg

Humidity: 59%

Dew point: 77 °F

Location of Al KhorLocation

Historic Weather in Al Khor — Graph

°F

Al Khor temperature yesterday

Maximum temperature yesterday: 102 °F (at 12:30 PM)
Minimum temperature yesterday: 90 °F (at 5:00 AM)
Average temperature yesterday: 95 °F

Past Weeks' High & Low Weather Summary

 TemperatureHumidityPressure
High113 °F (Jul 30, 11:30 AM)89% (Jul 19, 1:00 AM)29.62 "Hg (Jul 19, 1:00 AM)
Low90 °F (Jul 19, 1:00 AM)11% (Jul 23, 12:00 PM)29.36 "Hg (Jul 18, 12:00 AM)
Average99 °F39%29.47 "Hg
* Reported Midnight between Jul 17 and Jul 18 — Midnight between Aug 1 and Aug 2, Al Khor, Weather by CustomWeather, © 2014

Note: Actual official high and low records may vary slightly from our data, if they occured in-between our weather recording intervals... More about our weather records

Advertising

Al Khor weather history for previous 24 hours

 ConditionsComfort  
Time TempWeatherWind HumidityBarometerVisibility
12:00 AM
Aug 2
93 °FClear.2 mph59%29.45 "Hg6 mi
11:00 PM
Aug 1
93 °FClear.2 mph59%29.47 "Hg5 mi
10:30 PM93 °FClear.1 mph63%29.47 "Hg4 mi
10:00 PM93 °FClear.2 mph63%29.47 "Hg4 mi
9:30 PM93 °FClear.2 mph63%29.47 "Hg5 mi
9:00 PM93 °FClear.2 mph63%29.45 "Hg5 mi
8:00 PM95 °FClear.3 mph60%29.45 "Hg5 mi
7:30 PM95 °FClear.5 mph60%29.45 "Hg5 mi
7:00 PM95 °FClear.6 mph56%29.45 "Hg5 mi
6:00 PM95 °FClear.8 mph60%29.42 "Hg5 mi
5:30 PM97 °FClear.8 mph56%29.42 "Hg5 mi
5:00 PM97 °FClear.9 mph53%29.42 "Hg5 mi
12:30 PM102 °FClear.9 mph48%29.47 "Hg4 mi
10:00 AM100 °FSunny.9 mph35%29.50 "Hg10 mi
5:00 AM90 °FClear.1 mph52%29.47 "Hg5 mi
4:00 AM91 °FClear.2 mph49%29.45 "Hg6 mi
3:00 AM93 °FClear.3 mph49%29.45 "Hg6 mi
2:00 AM93 °FClear.5 mph56%29.45 "Hg6 mi
Weather by CustomWeather, © 2014

See weather overviewHow to use our weather pages